Regional Weather Roundup
Issued by NWS

Home | Current Version | Previous Version | Graphics & Text | Print | Product List | Glossary On
Versions: 1 2 3 4 5 6 7 8 9 10 11 12 13 14 15 16 17 18 19 20 21 22 23 24 25 26 27 28 29 30 31 32 33 34 35 36 37 38 39 40 41 42 43 44 45 46 47 48 49 50
000
ASUS43 KDTX 190501
RWRMI
MICHIGAN HOURLY REGIONAL WEATHER ROUNDUP
NATIONAL WEATHER SERVICE DETROIT/PONTIAC MI
100 AM EDT FRI SEP 19 2014

NOTE: "FAIR" INDICATES FEW OR NO CLOUDS BELOW 12,000 FEET WITH NO
SIGNIFICANT WEATHER AND/OR OBSTRUCTION TO VISIBILITY.

MIZ047>049-052>055-059>063-066>070-074>076-081>083-190600-
SOUTHEAST LOWER MICHIGAN

CITY           SKY/WX    TMP DP  RH WIND       PRES   REMARKS
ADRIAN         CLOUDY    52  49  89 E5        30.23S
ALMA           CLEAR     43  41  93 E5        30.25R
ANN ARBOR      CLEAR     48  42  80 NE5       30.23R
BAD AXE        CLEAR     35  35  98 CALM      30.25F
CARO           CLEAR     38  37  97 CALM      30.24F
DETROIT CITY   CLEAR     50  42  74 CALM      30.24S
DETROIT        PTCLDY    49  43  80 N6        30.24R
FLINT          CLEAR     46  41  82 E5        30.25S
GROSSE ILE     CLEAR     52  46  82 CALM      30.22S
HILLSDALE      CLEAR     52  52  99 SE3       30.21S FOG
HOWELL         CLEAR     45  44  97 E3        30.23S

CITY           SKY/WX    TMP DP  RH WIND       PRES   REMARKS
JACKSON        CLEAR     49  47  93 NE3       30.22R FOG
LAMBERTVILLE   PTCLDY    54  48  82 NE3       30.22S
LANSING        CLEAR     45  43  93 E5        30.23R
LAPEER         FAIR      38  37  99 CALM      30.24S
MASON          CLEAR     47  46  97 E5        30.22S FOG
MONROE         CLEAR     50  46  87 NE3       30.21S
MT. CLEMENS    CLEAR     44  44  99 W2        30.22S
PONTIAC        CLEAR     46  40  79 CALM      30.23S
PORT HOPE        N/A     52  41  66 E10       30.23F
PORT HURON     CLEAR     39  39 100 CALM      30.23S
TRI CITIES     CLEAR     42  38  85 SE3       30.25S
TROY           CLEAR     48  42  79 CALM      30.25S
SAGINAW HB     CLEAR     43  43 100 E3        30.24F
$$
MIZ043>046-050>051-056>058-064>065-071>073-077>080-190600-
SOUTHWEST LOWER MICHIGAN

CITY           SKY/WX    TMP DP  RH WIND       PRES   REMARKS
BATTLE CREEK   CLEAR     53  49  86 E6        30.21S
BENTON HARBOR  CLEAR     52  50  93 E6        30.18R
BIG RAPIDS     CLEAR     44  44 100 CALM      30.22S
COLDWATER      CLEAR     53  51  93 E5        30.20S
FREMONT        FAIR      49  47  93 E5        30.21R
HOLLAND        CLEAR     53  50  89 E7        30.21R
GRAND RAPIDS   CLEAR     50  47  89 E6        30.22R
IONIA          FAIR      47  46  96 E7        30.22R
KALAMAZOO      CLEAR     50  48  93 CALM      30.21R
LUDINGTON      CLEAR     49  48  96 SE6       30.19S FOG
MARSHALL       CLEAR     48  48  99 CALM      30.21S FOG
MOUNT PLEASANT CLEAR     41  40  95 E3        30.24R
MUSKEGON       CLEAR     52  48  86 E5        30.21R
SOUTH HAVEN    CLEAR     54  52  95 E6        30.19R
$$
MIZ016>042-190600-
NORTHERN LOWER MICHIGAN

CITY           SKY/WX    TMP DP  RH WIND       PRES   REMARKS
ALPENA         PTCLDY    36  34  92 CALM      30.26R
BEAVER ISLAND  CLEAR     46  44  93 E5        30.19S
CADILLAC       CLOUDY    48  45  90 SE5       30.21R
CHARLEVOIX     CLEAR     47  43  85 SE10      30.22S
FRANKFORT      CLEAR     49  46  88 SE3       30.19R
GAYLORD        CLOUDY    42  38  85 S9        30.22S
GRAYLING       CLOUDY    41  39  92 SE5       30.24R
HARBOR SPRINGS CLEAR     44  39  85 NE6       30.22S FOG
HOUGHTON LAKE  CLOUDY    43  40  89 SE6       30.23S
MANISTEE       CLEAR     46  43  87 E6        30.20S
OSCODA         PTCLDY    34  32  92 CALM      30.25S
PELLSTON       CLEAR     41  39  93 SE6       30.23R
TRAVERSE CITY  MOCLDY    51  47  86 S3        30.19R
$$
MIZ007>008-015-190600-
EASTERN UPPER MICHIGAN

CITY           SKY/WX    TMP DP  RH WIND       PRES   REMARKS
KINROSS        CLEAR     37  36  93 SE7       30.23S WCI  32
MACKINAC ISLAN CLEAR     45  39  80 SE8       30.23R
NEWBERRY       PTCLDY    38  37  94 SE7       30.19F WCI  33
S. S. MARIE    CLEAR     39  36  89 E3        30.23S
$$
MIZ004>006-011>014-085-190600-
CENTRAL UPPER MICHIGAN

CITY           SKY/WX    TMP DP  RH WIND       PRES   REMARKS
MANISTIQUE     PTCLDY    39  38  97 CALM      30.17F
ESCANABA       CLEAR     43  39  87 CALM      30.16F
MENOMINEE      CLEAR     45  41  87 CALM      30.16S
SAWYER-GWINN   CLEAR     44  41  88 S9        30.14S
$$
MIZ001>003-009>011-084-190600-
WESTERN UPPER MICHIGAN

CITY           SKY/WX    TMP DP  RH WIND       PRES   REMARKS
IRON MOUNTAIN  CLEAR     44  41  89 SE5       30.14F
HOUGHTON       CLEAR     47  43  86 S6        30.06F
COPPER HARBOR    N/A     49  45  86 W7        30.06F
IRONWOOD       PTCLDY    52  48  87 S12G20    30.03R
$$

ABBREVIATIONS USED IN REMARKS
   TC - TEMPERATURE IN CELSIUS
  WCI - WIND CHILL INDEX
   HX - HEAT INDEX
  VSB - VISIBILITY




USA.gov is the U.S. government's official web portal to all federal, state and local government web resources and services.